Location: Étang Rond
(42.7927°N, 1.0661°E)
Time: 01:11:07
(UTC+00:00)

CZ-2C R/B - Pass Details

Date: 08 November 2025
Orbit: 664 x 773 km, 98.4° (Epoch: 07 December)

Event Time Altitude Azimuth Distance (km) Brightness Sun altitude
Rises 04:14:56 0° 11° (N) 3,184 5.9 -26.6°
Reaches altitude 10° 04:17:12 10° 9° (N) 2,272 5.0 -26.2°
Enters shadow 04:21:31 62° 337° (NNW) 852 2.5 -25.4°
